,,PA_Meas_PMT16A,,PR_Meas_QMR101_102,,RH_Meas_QMH101,,SR_Meas_QMS101,,TA_Meas_QMH101,,GenWind,,GenWind,
time,status,PA,status,PR,status,RH,status,SR,status,TA,status,DirAvg,status,SpdAvg,
2017-02-04, 00:00:04,VALID,915.873,VALID,0,VALID,73.1314,VALID,268.495,VALID,26.6421,VALID,66,VALID,0,
2017-02-04, 00:01:04,VALID,915.852,VALID,0,VALID,72.3081,VALID,329.952,VALID,26.7202,VALID,311,VALID,0,
2017-02-04, 00:02:04,VALID,915.836,VALID,0,VALID,72.3386,VALID,323.935,VALID,26.7202,VALID,203,VALID,0,
2017-02-04, 00:03:04,VALID,915.853,VALID,0,VALID,73.2534,VALID,309.431,VALID,26.7984,VALID,105,VALID,0,
2017-02-04, 00:04:04,VALID,915.866,VALID,0,VALID,73.9395,VALID,297.182,VALID,26.896,VALID,26,VALID,0,
2017-02-04, 00:05:04,VALID,915.904,VALID,0,VALID,73.2382,VALID,217.139,VALID,26.859,VALID,257,VALID,0,
2017-02-04, 00:06:04,VALID,915.898,VALID,0,VALID,73.0095,VALID,281.066,VALID,26.859,VALID,83,VALID,0,
2017-02-04, 00:07:04,VALID,915.939,VALID,0,VALID,73.4211,VALID,298.794,VALID,26.7984,VALID,68,VALID,0,
2017-02-04, 00:08:04,VALID,915.962,VALID,0,VALID,74.7781,VALID,309.86,VALID,26.7202,VALID,111,VALID,0,
2017-02-04, 00:09:04,VALID,916.004,VALID,0,VALID,74.1606,VALID,305.992,VALID,26.7027,VALID,20,VALID,0,
2017-02-04, 00:10:04,VALID,915.981,VALID,0,VALID,74.374,VALID,297.397,VALID,26.6812,VALID,217,VALID,0,
2017-02-04, 00:11:04,VALID,915.99,VALID,0,VALID,74.1149,VALID,272.578,VALID,26.7613,VALID,306,VALID,0,
2017-02-04, 00:12:04,VALID,916.009,VALID,0,VALID,74.3893,VALID,253.131,VALID,26.7613,VALID,312,VALID,0.028125,
2017-02-04, 00:13:04,VALID,916.011,VALID,0,VALID,74.3664,VALID,245.718,VALID,26.6832,VALID,346,VALID,0,
2017-02-04, 00:14:04,VALID,916.051,VALID,0,VALID,74.3359,VALID,253.024,VALID,26.6441,VALID,225,VALID,0,
2017-02-04, 00:15:04,VALID,916.032,VALID,0,VALID,74.7628,VALID,260.975,VALID,26.6441,VALID,95,VALID,0,
2017-02-04, 00:16:04,VALID,916.072,VALID,0,VALID,75.8759,VALID,260.545,VALID,26.6421,VALID,21,VALID,0,
2017-02-04, 00:17:04,VALID,916.084,VALID,0,VALID,75.1974,VALID,255.173,VALID,26.6441,VALID,297,VALID,0,
2017-02-04, 00:18:04,VALID,916.089,VALID,0,VALID,75.7844,VALID,248.511,VALID,26.5074,VALID,311,VALID,0.0195313,
2017-02-04, 00:19:04,VALID,916.09,VALID,0,VALID,75.9445,VALID,228.957,VALID,26.4272,VALID,14,VALID,0,
2017-02-04, 00:20:04,VALID,916.082,VALID,0,VALID,77.2481,VALID,209.295,VALID,26.2144,VALID,1,VALID,0.0496094,
2017-02-04, 00:21:04,VALID,916.102,VALID,0,VALID,77.7131,VALID,144.401,VALID,25.98,VALID,18,VALID,0,
2017-02-04, 00:22:04,VALID,916.101,VALID,0,VALID,79.192,VALID,138.599,VALID,25.8237,VALID,326,VALID,0.291016,
2017-02-04, 00:23:04,VALID,916.151,VALID,0,VALID,80.427,VALID,134.946,VALID,25.7066,VALID,2,VALID,0.116406,
2017-02-04, 00:24:04,VALID,916.083,VALID,0,VALID,80.3889,VALID,150.74,VALID,25.7046,VALID,30,VALID,0,
2017-02-04, 00:25:04,VALID,916.097,VALID,0,VALID,80.2898,VALID,211.337,VALID,25.8042,VALID,21,VALID,0,
2017-02-04, 00:26:04,VALID,916.13,VALID,0,VALID,78.666,VALID,203.816,VALID,25.9194,VALID,87,VALID,0.295703,
2017-02-04, 00:27:04,VALID,916.145,VALID,0,VALID,78.3458,VALID,206.18,VALID,26.0581,VALID,5,VALID,0,
2017-02-04, 00:28:04,VALID,916.105,VALID,0,VALID,78.5974,VALID,205.965,VALID,26.0386,VALID,42,VALID,0.0613281,
2017-02-04, 00:29:04,VALID,916.127,VALID,0,VALID,78.7423,VALID,211.874,VALID,26.019,VALID,5,VALID,0.0121094,
2017-02-04, 00:30:04,VALID,916.149,VALID,0,VALID,79.0701,VALID,202.204,VALID,26.0776,VALID,1,VALID,0,
2017-02-04, 00:31:04,VALID,916.136,VALID,0,VALID,78.3077,VALID,196.188,VALID,26.2339,VALID,31,VALID,0,
2017-02-04, 00:32:04,VALID,916.158,VALID,0,VALID,76.8898,VALID,187.592,VALID,26.3706,VALID,23,VALID,0.471484,
2017-02-04, 00:33:04,VALID,916.159,VALID,0,VALID,76.9889,VALID,173.303,VALID,26.4292,VALID,312,VALID,0,
2017-02-04, 00:34:04,VALID,916.177,VALID,0,VALID,77.2328,VALID,163.203,VALID,26.4292,VALID,60,VALID,0,
2017-02-04, 00:35:04,VALID,916.163,VALID,0,VALID,77.4692,VALID,158.476,VALID,26.4683,VALID,60,VALID,0,
2017-02-04, 00:36:04,VALID,916.185,VALID,0,VALID,77.5606,VALID,150.632,VALID,26.5074,VALID,59,VALID,0,
2017-02-04, 00:37:04,VALID,916.167,VALID,0,VALID,76.7449,VALID,152.781,VALID,26.5464,VALID,27,VALID,0,
2017-02-04, 00:38:04,VALID,916.161,VALID,0,VALID,77.1032,VALID,157.831,VALID,26.5855,VALID,18,VALID,0,
2017-02-04, 00:39:04,VALID,916.133,VALID,0,VALID,76.2723,VALID,152.674,VALID,26.5464,VALID,354,VALID,0,
2017-02-04, 00:40:04,VALID,916.168,VALID,0,VALID,76.6839,VALID,145.475,VALID,26.5875,VALID,17,VALID,0,
2017-02-04, 00:41:04,VALID,916.2,VALID,0,VALID,77.492,VALID,142.789,VALID,26.5269,VALID,19,VALID,0.0636719,
2017-02-04, 00:42:04,VALID,916.208,VALID,0,VALID,77.1413,VALID,130.434,VALID,26.3902,VALID,37,VALID,0,
2017-02-04, 00:43:04,VALID,916.245,VALID,0,VALID,78.2772,VALID,133.012,VALID,26.1558,VALID,15,VALID,0.242969,
2017-02-04, 00:44:04,VALID,916.234,VALID,0,VALID,79.1387,VALID,132.153,VALID,26.0386,VALID,28,VALID,0.101563,
2017-02-04, 00:45:04,VALID,916.275,VALID,0,VALID,79.6342,VALID,127.21,VALID,25.9409,VALID,5,VALID,0,
2017-02-04, 00:46:04,VALID,916.296,VALID,0,VALID,79.1463,VALID,120.549,VALID,25.9624,VALID,9,VALID,0.18125,
2017-02-04, 00:47:04,VALID,916.325,VALID,0,VALID,79.9315,VALID,120.227,VALID,25.8433,VALID,13,VALID,0,
2017-02-04, 00:48:04,VALID,916.298,VALID,0,VALID,80.3889,VALID,111.846,VALID,25.8433,VALID,17,VALID,0,
2017-02-04, 00:49:04,VALID,916.287,VALID,0,VALID,79.6266,VALID,109.053,VALID,25.9585,VALID,33,VALID,0,
2017-02-04, 00:50:04,VALID,916.279,VALID,0,VALID,78.9176,VALID,111.739,VALID,25.9389,VALID,3,VALID,0,
2017-02-04, 00:51:04,VALID,916.25,VALID,0,VALID,78.6813,VALID,115.284,VALID,25.8608,VALID,21,VALID,0.307031,
2017-02-04, 00:52:04,VALID,916.266,VALID,0,VALID,79.7181,VALID,116.144,VALID,25.7066,VALID,20,VALID,0,
2017-02-04, 00:53:04,VALID,916.266,VALID,0,VALID,80.8997,VALID,120.119,VALID,25.5113,VALID,38,VALID,0,
2017-02-04, 00:54:04,VALID,916.269,VALID,0,VALID,81.3723,VALID,125.062,VALID,25.4117,VALID,26,VALID,0,
2017-02-04, 00:55:04,VALID,916.309,VALID,0,VALID,81.784,VALID,122.698,VALID,25.4527,VALID,9,VALID,0,
2017-02-04, 00:56:04,VALID,916.303,VALID,0,VALID,79.375,VALID,109.16,VALID,25.4136,VALID,287,VALID,0,
2017-02-04, 14:22:04,VALID,917.715,VALID,0,INVALID,131.649,VALID,140.211,VALID,18.7697,VALID,136,VALID,0,
2017-02-04, 14:23:04,VALID,917.724,VALID,0,INVALID,131.237,VALID,142.682,VALID,18.8477,VALID,126,VALID,0,
2017-02-04, 14:24:04,VALID,917.728,VALID,0,INVALID,130.917,VALID,147.409,VALID,18.8853,VALID,109,VALID,0,
2017-02-04, 14:25:04,VALID,917.726,VALID,0,INVALID,130.482,VALID,152.244,VALID,18.9257,VALID,107,VALID,0,
2017-02-04, 14:26:04,VALID,917.739,VALID,0,INVALID,130.818,VALID,155.467,VALID,19.0023,VALID,86,VALID,0,
2017-02-04, 14:27:04,VALID,917.729,VALID,0,INVALID,130.589,VALID,160.087,VALID,19.0413,VALID,82,VALID,0,
2017-02-04, 14:28:04,VALID,917.741,VALID,0,INVALID,130.681,VALID,164.815,VALID,19.0998,VALID,82,VALID,0,
2017-02-04, 14:29:04,VALID,917.746,VALID,0,INVALID,130.627,VALID,171.476,VALID,19.1583,VALID,82,VALID,0,
2017-02-04, 14:30:04,VALID,917.746,VALID,0,INVALID,130.482,VALID,175.344,VALID,19.2363,VALID,93,VALID,0,
2017-02-04, 14:31:04,VALID,917.779,VALID,0,INVALID,130.604,VALID,177.385,VALID,19.3547,VALID,97,VALID,0,
2017-02-04, 14:32:04,VALID,917.816,VALID,0,INVALID,130.612,VALID,184.047,VALID,19.4913,VALID,123,VALID,0,
2017-02-04, 14:33:04,VALID,917.808,VALID,0,INVALID,130.155,VALID,189.956,VALID,19.6083,VALID,130,VALID,1.24727,
2017-02-04, 14:34:04,VALID,917.844,VALID,0,INVALID,129.758,VALID,192.32,VALID,19.7058,VALID,156,VALID,1.48086,
2017-02-04, 14:35:04,VALID,917.831,VALID,0,INVALID,128.615,VALID,190.815,VALID,19.6668,VALID,155,VALID,1.53555,
2017-02-04, 14:36:04,VALID,917.838,VALID,0,INVALID,127.913,VALID,179.642,VALID,19.5483,VALID,157,VALID,1.57187,
2017-02-04, 14:37:04,VALID,917.85,VALID,0,INVALID,127.593,VALID,195.435,VALID,19.4508,VALID,165,VALID,1.3832,
2017-02-04, 14:38:04,VALID,917.834,VALID,0,INVALID,127.959,VALID,198.874,VALID,19.3713,VALID,147,VALID,1.69336,
2017-02-04, 14:39:04,VALID,917.844,VALID,0,INVALID,128.333,VALID,208.436,VALID,19.2753,VALID,147,VALID,1.8293,
2017-02-04, 14:40:04,VALID,917.859,VALID,0,INVALID,129.133,VALID,211.014,VALID,19.2153,VALID,155,VALID,1.35234,
2017-02-04, 14:41:04,VALID,917.879,VALID,0,INVALID,129.751,VALID,214.345,VALID,19.2558,VALID,153,VALID,1.27734,
2017-02-04, 14:42:04,VALID,917.911,VALID,0,INVALID,130.216,VALID,213.271,VALID,19.2933,VALID,159,VALID,1.57187,
2017-02-04, 14:43:04,VALID,917.955,VALID,0,INVALID,129.56,VALID,213.271,VALID,19.2543,VALID,158,VALID,1.48828,
2017-02-04, 14:44:04,VALID,917.974,VALID,0,INVALID,129.263,VALID,208.973,VALID,19.2948,VALID,157,VALID,1.47422,
2017-02-04, 14:45:04,VALID,917.974,VALID,0,INVALID,128.881,VALID,200.808,VALID,19.3323,VALID,155,VALID,1.63672,
2017-02-04, 14:46:04,VALID,917.985,VALID,0,INVALID,127.12,VALID,197.907,VALID,19.3518,VALID,152,VALID,1.39727,
2017-02-04, 14:47:04,VALID,918,VALID,0,INVALID,127.799,VALID,177.815,VALID,19.4493,VALID,147,VALID,1.13047,
2017-02-04, 14:48:04,VALID,918.029,VALID,0,INVALID,127.547,VALID,163.096,VALID,19.5678,VALID,135,VALID,0.923047,
2017-02-04, 14:49:04,VALID,918.024,VALID,0,INVALID,126.274,VALID,169.542,VALID,19.7043,VALID,133,VALID,0.827344,
2017-02-04, 14:50:04,VALID,918.065,VALID,0,INVALID,122.379,VALID,179.642,VALID,19.7823,VALID,137,VALID,1.21328,
2017-02-04, 14:51:04,VALID,918.073,VALID,0,INVALID,124.711,VALID,178.245,VALID,19.8783,VALID,133,VALID,0.837109,
2017-02-04, 14:52:04,VALID,918.103,VALID,0,INVALID,126.724,VALID,170.509,VALID,19.9968,VALID,138,VALID,0,
2017-02-04, 14:53:04,VALID,918.109,VALID,0,INVALID,124.216,VALID,181.576,VALID,20.0733,VALID,149,VALID,0,
2017-02-04, 14:54:04,VALID,918.139,VALID,0,INVALID,121.921,VALID,193.609,VALID,20.1318,VALID,169,VALID,0,
2017-02-04, 14:55:04,VALID,918.171,VALID,0,INVALID,117.896,VALID,198.014,VALID,20.1123,VALID,157,VALID,0,
2017-02-04, 14:56:04,VALID,918.192,VALID,0,INVALID,122.264,VALID,195.65,VALID,20.1708,VALID,167,VALID,0,
2017-02-04, 14:57:04,VALID,918.204,VALID,0,INVALID,109.404,VALID,190.278,VALID,20.1708,VALID,159,VALID,0,
2017-02-04, 14:58:04,VALID,918.228,VALID,0,VALID,104,VALID,169.112,VALID,20.0733,VALID,158,VALID,0,
2017-02-04, 14:59:04,VALID,918.197,VALID,0,INVALID,118.315,VALID,164.922,VALID,20.0148,VALID,155,VALID,0,
2017-02-04, 15:00:04,VALID,918.214,VALID,0,INVALID,122.981,VALID,160.302,VALID,19.9563,VALID,155,VALID,0,
2017-02-04, 15:01:04,VALID,918.234,VALID,0,INVALID,125.337,VALID,156.649,VALID,19.8978,VALID,145,VALID,0,
2017-02-04, 15:02:04,VALID,918.244,VALID,0,INVALID,127.204,VALID,154.285,VALID,19.8768,VALID,144,VALID,0,
2017-02-04, 15:03:04,VALID,918.252,VALID,0,INVALID,127.616,VALID,153.856,VALID,19.9368,VALID,145,VALID,0,
2017-02-04, 15:04:04,VALID,918.259,VALID,0,INVALID,127.547,VALID,154.93,VALID,19.9158,VALID,154,VALID,0,
2017-02-04, 15:05:04,VALID,918.3,VALID,0,INVALID,126.838,VALID,153.856,VALID,19.9173,VALID,169,VALID,0,
2017-02-04, 15:06:04,VALID,918.306,VALID,0,INVALID,127.342,VALID,153.319,VALID,19.9758,VALID,144,VALID,0,
2017-02-04, 15:07:04,VALID,918.315,VALID,0,INVALID,127.525,VALID,153.748,VALID,19.9548,VALID,130,VALID,0,
2017-02-04, 15:08:04,VALID,918.332,VALID,0,INVALID,127.113,VALID,151.707,VALID,19.9743,VALID,148,VALID,0,
2017-02-04, 15:09:04,VALID,918.362,VALID,0,INVALID,126.427,VALID,149.88,VALID,19.9938,VALID,109,VALID,0,
2017-02-04, 15:10:04,VALID,918.359,VALID,0,INVALID,119.367,VALID,147.517,VALID,19.9353,VALID,111,VALID,0,
2017-02-04, 15:11:04,VALID,918.336,VALID,0,INVALID,116.753,VALID,147.409,VALID,19.8978,VALID,107,VALID,0,
2017-02-04, 15:12:04,VALID,918.367,VALID,0,INVALID,120.595,VALID,147.624,VALID,19.8768,VALID,105,VALID,0,
2017-02-04, 15:13:04,VALID,918.399,VALID,0,INVALID,120.724,VALID,147.732,VALID,19.8183,VALID,105,VALID,0,
2017-02-04, 15:14:04,VALID,918.404,VALID,0,INVALID,126.861,VALID,148.376,VALID,19.8768,VALID,126,VALID,0,
2017-02-04, 15:15:04,VALID,918.444,VALID,0,INVALID,122.798,VALID,149.988,VALID,19.8768,VALID,131,VALID,1.66289,
2017-02-04, 15:16:04,VALID,918.477,VALID,0,INVALID,126.282,VALID,151.062,VALID,19.9353,VALID,153,VALID,1.59219,
2017-02-04, 15:17:04,VALID,918.456,VALID,0,INVALID,126.549,VALID,153.104,VALID,19.8768,VALID,151,VALID,1.825,
2017-02-04, 15:18:04,VALID,918.444,VALID,0,INVALID,126.701,VALID,156.434,VALID,19.7598,VALID,149,VALID,1.53398,
2017-02-04, 15:19:04,VALID,918.468,VALID,0,INVALID,126.899,VALID,158.691,VALID,19.6818,VALID,145,VALID,1.27891,
2017-02-04, 15:20:04,VALID,918.437,VALID,0,INVALID,127.73,VALID,159.013,VALID,19.6608,VALID,151,VALID,0.974219,
2017-02-04, 15:21:04,VALID,918.476,VALID,0,INVALID,127.913,VALID,160.517,VALID,19.7208,VALID,138,VALID,0.0113281,
2017-02-04, 15:22:04,VALID,918.488,VALID,0,INVALID,127.646,VALID,159.98,VALID,19.7208,VALID,139,VALID,0,
2017-02-04, 15:23:04,VALID,918.484,VALID,0,INVALID,127.448,VALID,167.286,VALID,19.7388,VALID,136,VALID,0,
2017-02-04, 15:24:04,VALID,918.498,VALID,0,INVALID,125.962,VALID,168.145,VALID,19.7583,VALID,151,VALID,0,
2017-02-04, 15:25:04,VALID,918.526,VALID,0,INVALID,120.458,VALID,164.922,VALID,19.7793,VALID,152,VALID,0,
2017-02-04, 15:26:04,VALID,918.558,VALID,0,INVALID,117.713,VALID,166.319,VALID,19.7793,VALID,156,VALID,0,
2017-02-04, 15:27:04,VALID,918.571,VALID,0,INVALID,114.763,VALID,168.897,VALID,19.7793,VALID,153,VALID,0,
2017-02-04, 15:28:04,VALID,918.563,VALID,0,INVALID,121.35,VALID,169.65,VALID,19.8378,VALID,156,VALID,0,
2017-02-04, 15:29:04,VALID,918.589,VALID,0,INVALID,119.36,VALID,171.046,VALID,19.8768,VALID,164,VALID,0,
2017-02-04, 15:30:04,VALID,918.597,VALID,0,INVALID,117.606,VALID,171.261,VALID,19.9158,VALID,157,VALID,0,
2017-02-04, 15:31:04,VALID,918.605,VALID,0,VALID,102.992,VALID,172.013,VALID,19.8948,VALID,150,VALID,0,
2017-02-04, 15:32:04,VALID,918.606,VALID,0,INVALID,118.681,VALID,170.724,VALID,19.9533,VALID,155,VALID,0,
2017-02-04, 15:33:04,VALID,918.588,VALID,0,INVALID,124.353,VALID,170.939,VALID,20.0328,VALID,137,VALID,0,
2017-02-04, 15:34:04,VALID,918.587,VALID,0,INVALID,118.91,VALID,171.046,VALID,20.0523,VALID,151,VALID,1.46758,
2017-02-04, 15:35:04,VALID,918.552,VALID,0,INVALID,116.127,VALID,172.336,VALID,20.0898,VALID,142,VALID,1.62695,
2017-02-04, 15:36:05,VALID,918.586,VALID,0,VALID,104,VALID,171.906,VALID,20.1108,VALID,148,VALID,1.70469,
2017-02-04, 15:37:04,VALID,918.6,VALID,0,VALID,104,VALID,171.798,VALID,20.1108,VALID,138,VALID,1.6168,
2017-02-04, 15:38:04,VALID,918.595,VALID,0,VALID,103.076,VALID,171.798,VALID,20.1303,VALID,139,VALID,2.23789,
2017-02-04, 15:39:04,VALID,918.61,VALID,0,VALID,104,VALID,171.369,VALID,20.1288,VALID,153,VALID,2.2418,
2017-02-04, 15:40:04,VALID,918.596,VALID,0,INVALID,115.464,VALID,171.798,VALID,20.1108,VALID,140,VALID,2.09961,
2017-02-04, 15:41:04,VALID,918.593,VALID,0,INVALID,122.943,VALID,171.369,VALID,20.1303,VALID,145,VALID,1.50625,
2017-02-04, 15:42:04,VALID,918.587,VALID,0,INVALID,122.516,VALID,171.046,VALID,20.1288,VALID,137,VALID,1.67266,
2017-02-04, 15:43:04,VALID,918.578,VALID,0,INVALID,122.455,VALID,170.509,VALID,20.1498,VALID,135,VALID,2.0082,
2017-02-04, 15:44:04,VALID,918.584,VALID,0,INVALID,117.774,VALID,169.972,VALID,20.1513,VALID,143,VALID,2.16289,
2017-02-04, 15:45:04,VALID,918.609,VALID,0,INVALID,115.045,VALID,169.542,VALID,20.1708,VALID,147,VALID,1.80938,
2017-02-04, 15:46:04,VALID,918.611,VALID,0,INVALID,124.407,VALID,168.683,VALID,20.2293,VALID,146,VALID,0.961328,
2017-02-04, 15:47:04,VALID,918.635,VALID,0,INVALID,116.692,VALID,168.145,VALID,20.2293,VALID,147,VALID,1.54688,
2017-02-04, 15:48:04,VALID,918.632,VALID,0,INVALID,120.991,VALID,167.286,VALID,20.2684,VALID,134,VALID,1.13477,
2017-02-04, 15:49:04,VALID,918.629,VALID,0,INVALID,120.221,VALID,166.319,VALID,20.2668,VALID,146,VALID,1.64531,
2017-02-04, 15:50:04,VALID,918.621,VALID,0,INVALID,120.541,VALID,165.459,VALID,20.2668,VALID,145,VALID,1.25742,
2017-02-04, 15:51:04,VALID,918.633,VALID,0,INVALID,120.747,VALID,164.6,VALID,20.2473,VALID,139,VALID,1.44102,
2017-02-04, 15:52:04,VALID,918.665,VALID,0,INVALID,125.359,VALID,163.848,VALID,20.3058,VALID,143,VALID,1.30039,
2017-02-04, 15:53:04,VALID,918.656,VALID,0,INVALID,124.75,VALID,163.096,VALID,20.3058,VALID,146,VALID,1.36211,
2017-02-04, 15:54:04,VALID,918.657,VALID,0,INVALID,123.812,VALID,162.558,VALID,20.2863,VALID,150,VALID,1.38984,
2017-02-04, 15:55:04,VALID,918.632,VALID,0,INVALID,122.6,VALID,162.236,VALID,20.3269,VALID,149,VALID,1.17695,
2017-02-04, 15:56:04,VALID,918.633,VALID,0,INVALID,118.178,VALID,161.914,VALID,20.3464,VALID,136,VALID,0,
2017-02-04, 15:57:04,VALID,918.599,VALID,0,INVALID,121.578,VALID,161.591,VALID,20.4049,VALID,132,VALID,0,
2017-02-04, 15:58:04,VALID,918.595,VALID,0,VALID,95.8035,VALID,161.484,VALID,20.3854,VALID,154,VALID,0,
2017-02-04, 15:59:04,VALID,918.611,VALID,0,VALID,101.46,VALID,161.806,VALID,20.4049,VALID,148,VALID,0,
2017-02-04, 16:00:04,VALID,918.602,VALID,0,VALID,101.658,VALID,162.236,VALID,20.4228,VALID,145,VALID,0,
2017-02-04, 16:01:04,VALID,918.628,VALID,0,VALID,100.919,VALID,162.988,VALID,20.4829,VALID,143,VALID,0,
2017-02-04, 16:02:04,VALID,918.62,VALID,0,VALID,92.2814,VALID,163.203,VALID,20.4813,VALID,146,VALID,0,
2017-02-04, 16:03:04,VALID,918.635,VALID,0,VALID,91.9536,VALID,163.633,VALID,20.5204,VALID,142,VALID,0,
2017-02-04, 16:04:04,VALID,918.628,VALID,0,VALID,90.0935,VALID,164.385,VALID,20.5609,VALID,144,VALID,0,
2017-02-04, 16:05:04,VALID,918.643,VALID,0,VALID,91.3971,VALID,165.137,VALID,20.5804,VALID,138,VALID,1.27773,
2017-02-04, 16:06:04,VALID,918.642,VALID,0,VALID,90.8559,VALID,165.889,VALID,20.5984,VALID,145,VALID,1.33086,
2017-02-04, 16:07:04,VALID,918.662,VALID,0,VALID,88.1267,VALID,166.641,VALID,20.6585,VALID,144,VALID,1.59414,
2017-02-04, 16:08:04,VALID,918.608,VALID,0,VALID,86.5563,VALID,167.501,VALID,20.6569,VALID,148,VALID,1.9168,
2017-02-04, 16:09:04,VALID,918.631,VALID,0,VALID,88.1267,VALID,168.575,VALID,20.6569,VALID,142,VALID,1.55313,
2017-02-04, 16:10:04,VALID,918.605,VALID,0,VALID,87.0213,VALID,169.435,VALID,20.6764,VALID,138,VALID,1.74648,
2017-02-04, 16:11:04,VALID,918.586,VALID,0,VALID,86.3885,VALID,170.294,VALID,20.6764,VALID,139,VALID,1.49414,
2017-02-04, 16:12:04,VALID,918.569,VALID,0,VALID,86.5105,VALID,171.261,VALID,20.6959,VALID,146,VALID,1.48672,
2017-02-04, 16:13:04,VALID,918.575,VALID,0,VALID,85.611,VALID,172.121,VALID,20.7154,VALID,148,VALID,1.54648,
2017-02-04, 16:14:04,VALID,918.569,VALID,0,VALID,87.5702,VALID,173.088,VALID,20.7349,VALID,155,VALID,0.969141,
2017-02-04, 16:15:04,VALID,918.547,VALID,0,VALID,85.4585,VALID,174.055,VALID,20.7934,VALID,155,VALID,0,
2017-02-04, 16:16:04,VALID,918.539,VALID,0,VALID,85.3899,VALID,175.237,VALID,20.8129,VALID,143,VALID,0,
2017-02-04, 16:17:04,VALID,918.53,VALID,0,VALID,84.5284,VALID,176.203,VALID,20.8129,VALID,148,VALID,0,
2017-02-04, 16:18:04,VALID,918.545,VALID,0,VALID,85.2222,VALID,177.278,VALID,20.8324,VALID,154,VALID,1.24648,
2017-02-04, 16:19:04,VALID,918.533,VALID,0,VALID,86.7697,VALID,178.352,VALID,20.8519,VALID,147,VALID,0.859375,
2017-02-04, 16:20:04,VALID,918.562,VALID,0,VALID,85.0697,VALID,179.427,VALID,20.891,VALID,147,VALID,1.26719,
2017-02-04, 16:21:04,VALID,918.586,VALID,0,VALID,85.8168,VALID,180.716,VALID,20.9495,VALID,140,VALID,0.516797,
2017-02-04, 16:22:04,VALID,918.61,VALID,0,VALID,85.4814,VALID,182.005,VALID,20.969,VALID,140,VALID,1.05156,
2017-02-04, 16:23:04,VALID,918.592,VALID,0,VALID,83.1486,VALID,183.402,VALID,20.9479,VALID,144,VALID,1.54336,
2017-02-04, 16:24:04,VALID,918.611,VALID,0,VALID,85.489,VALID,184.799,VALID,20.9885,VALID,123,VALID,1.28047,
2017-02-04, 16:25:04,VALID,918.632,VALID,0,VALID,86.0303,VALID,186.088,VALID,21.0275,VALID,142,VALID,0.157031,
2017-02-04, 16:26:04,VALID,918.612,VALID,0,VALID,84.8715,VALID,187.485,VALID,21.086,VALID,130,VALID,1.17617,
2017-02-04, 16:27:04,VALID,918.628,VALID,0,VALID,84.9706,VALID,188.989,VALID,21.1055,VALID,125,VALID,1.48906,
2017-02-04, 16:28:04,VALID,918.633,VALID,0,VALID,87.6769,VALID,190.386,VALID,21.164,VALID,108,VALID,0.95625,
2017-02-04, 16:29:04,VALID,918.653,VALID,0,VALID,87.6617,VALID,191.997,VALID,21.2015,VALID,129,VALID,1.22344,
2017-02-04, 16:30:04,VALID,918.667,VALID,0,VALID,86.076,VALID,193.824,VALID,21.2616,VALID,125,VALID,1.57227,
2017-02-04, 16:31:04,VALID,918.656,VALID,0,VALID,86.4343,VALID,195.543,VALID,21.2811,VALID,132,VALID,1.00586,
2017-02-04, 16:32:04,VALID,918.641,VALID,0,VALID,88.3097,VALID,197.262,VALID,21.3412,VALID,110,VALID,0.798047,
2017-02-04, 16:33:04,VALID,918.669,VALID,0,VALID,89.4913,VALID,198.981,VALID,21.3591,VALID,113,VALID,0.0796875,
2017-02-04, 16:34:04,VALID,918.647,VALID,0,VALID,88.7747,VALID,200.915,VALID,21.4177,VALID,122,VALID,0,
2017-02-04, 16:35:04,VALID,918.652,VALID,0,VALID,84.9477,VALID,202.634,VALID,21.416,VALID,144,VALID,1.42617,
2017-02-04, 16:36:04,VALID,918.653,VALID,0,VALID,86.3047,VALID,204.568,VALID,21.3591,VALID,141,VALID,1.15781,
2017-02-04, 16:37:04,VALID,918.648,VALID,0,VALID,84.9477,VALID,206.609,VALID,21.3185,VALID,167,VALID,1.12852,
2017-02-04, 16:38:04,VALID,918.627,VALID,0,VALID,84.6733,VALID,208.866,VALID,21.299,VALID,126,VALID,1.09883,
2017-02-04, 16:39:04,VALID,918.644,VALID,0,VALID,85.9388,VALID,211.122,VALID,21.3591,VALID,129,VALID,0.00429688,
2017-02-04, 16:40:04,VALID,918.668,VALID,0,VALID,85.9769,VALID,213.486,VALID,21.377,VALID,137,VALID,0,
2017-02-04, 16:41:04,VALID,918.646,VALID,0,VALID,84.1091,VALID,215.849,VALID,21.3575,VALID,137,VALID,0,
2017-02-04, 16:42:04,VALID,918.662,VALID,0,VALID,85.2069,VALID,218.213,VALID,21.377,VALID,143,VALID,0,
2017-02-04, 16:43:04,VALID,918.655,VALID,0,VALID,84.7114,VALID,220.684,VALID,21.416,VALID,163,VALID,0,
2017-02-04, 16:44:04,VALID,918.693,VALID,0,VALID,84.9858,VALID,223.048,VALID,21.455,VALID,138,VALID,0,
2017-02-04, 16:45:04,VALID,918.674,VALID,0,VALID,84.7724,VALID,225.197,VALID,21.4941,VALID,159,VALID,0,
2017-02-04, 16:46:04,VALID,918.642,VALID,0,VALID,87.0365,VALID,227.99,VALID,21.6095,VALID,139,VALID,0,
2017-02-04, 16:47:04,VALID,918.637,VALID,0,VALID,87.0594,VALID,230.676,VALID,21.7087,VALID,85,VALID,0,
2017-02-04, 16:48:04,VALID,918.621,VALID,0,VALID,83.2553,VALID,233.47,VALID,21.8079,VALID,85,VALID,0,
2017-02-04, 16:49:04,VALID,918.627,VALID,0,VALID,83.1486,VALID,236.478,VALID,21.7477,VALID,85,VALID,0,
2017-02-04, 16:50:04,VALID,918.625,VALID,0,VALID,82.7979,VALID,239.916,VALID,21.7672,VALID,92,VALID,0,
2017-02-04, 16:51:04,VALID,918.623,VALID,0,VALID,80.5109,VALID,243.784,VALID,21.7672,VALID,99,VALID,0,
2017-02-04, 16:52:04,VALID,918.627,VALID,0,VALID,81.6544,VALID,248.404,VALID,21.8062,VALID,99,VALID,0,
2017-02-04, 16:53:04,VALID,918.607,VALID,0,VALID,82.5845,VALID,252.702,VALID,21.9233,VALID,99,VALID,0,
2017-02-04, 16:54:04,VALID,918.583,VALID,0,VALID,83.7966,VALID,256.999,VALID,22.0403,VALID,80,VALID,0,
2017-02-04, 16:55:04,VALID,918.593,VALID,0,VALID,77.1718,VALID,262.371,VALID,22.1769,VALID,80,VALID,0,
2017-02-04, 16:56:04,VALID,918.578,VALID,0,VALID,75.8301,VALID,267.421,VALID,22.2159,VALID,80,VALID,0,
2017-02-04, 16:57:04,VALID,918.565,VALID,0,VALID,77.2481,VALID,271.719,VALID,22.3525,VALID,80,VALID,0,
2017-02-04, 16:58:04,VALID,918.598,VALID,0,VALID,75.327,VALID,278.487,VALID,22.5086,VALID,80,VALID,0,
2017-02-04, 16:59:04,VALID,918.529,VALID,0,VALID,74.0615,VALID,286.223,VALID,22.6452,VALID,80,VALID,0,
2017-02-04, 17:00:04,VALID,918.525,VALID,0,VALID,72.026,VALID,295.141,VALID,22.7038,VALID,80,VALID,0,
2017-02-04, 17:01:04,VALID,918.552,VALID,0,VALID,73.0171,VALID,304.166,VALID,22.7801,VALID,80,VALID,0,
2017-02-04, 17:02:04,VALID,918.526,VALID,0,VALID,75.6319,VALID,309.001,VALID,22.938,VALID,80,VALID,0,
2017-02-04, 17:03:04,VALID,918.546,VALID,0,VALID,75.6777,VALID,314.588,VALID,23.1136,VALID,80,VALID,0,
2017-02-04, 17:04:04,VALID,918.553,VALID,0,VALID,75.9597,VALID,318.778,VALID,23.3283,VALID,80,VALID,0,
2017-02-04, 17:05:04,VALID,918.562,VALID,0,VALID,72.2014,VALID,321.571,VALID,23.465,VALID,80,VALID,0,